Weather History for Wolf Creek Pass, CO

Change the Weather History Date:

Saturday, May 5, 2012

  Actual Average (KALS) Record (KALS)
Temperature  
Mean Temperature 39 °F 48 °F  
Max Temperature 46 °F 66 °F 80 °F (2000)
Min Temperature 32 °F 31 °F 17 °F (1991)
Degree Days  
Heating Degree Days 26 17  
Month to date heating degree days 88  
Since 1 July heating degree days 8088  
Cooling Degree Days 0 0  
Month to date cooling degree days 0  
Year to date cooling degree days 0  
Moisture  
Dew Point 12 °F    
Average Humidity 35    
Maximum Humidity 48    
Minimum Humidity 23    
Precipitation  
Precipitation 0.00 in 0.02 in 0.58 in (1978)
Month to date precipitation 0.10  
Year to date precipitation 1.74  
Snow  
Snow 0.00 in 0.00 in 7.10 in (1978)
Month to date snowfall 0.3  
Since 1 July snowfall 27.0  
Snow Depth -    
Sea Level Pressure  
Sea Level Pressure 30.33 in    
Wind  
Wind Speed 14 mph (SW)    
Max Wind Speed 21 mph    
Max Gust Speed 29 mph    
Visibility 10 miles    
Events      
T = Trace of Precipitation, MM = Missing Value Source: NWS Daily Summary

Daily Weather History Graph

Daily Weather History Graph

Search for Another Location

Airport:

Trip Planner

Search our weather history database for the weather conditions in past years. The results will help you decide how hot, cold, wet, or windy it might be!

Date:

Astronomy

May. 05, 2012 Rise Set
Actual Time 6:07 AM MDT 8:01 PM MDT
Civil Twilight 5:38 AM MDT 8:29 PM MDT
Nautical Twilight 5:04 AM MDT 9:04 PM MDT
Astronomical Twilight 4:27 AM MDT 9:41 PM MDT
Moon 7:56 PM MDT (5/5) 5:31 AM MDT (5/5)
Length of Visible Light 14h 51m
Length of Day
13h 54m
Full, 100% of the Moon is Illuminated
May 5
Full
May 5
Full
May 12
Last Quarter
May 20
New
May 28
First Quarter

Hourly Weather History & Observations

Time (MDT) Temp. Windchill Dew Point Humidity Pressure Visibility Wind Dir Wind Speed Gust Speed Precip Events Conditions
12:14 AM 37.4 °F 29.8 °F 10.4 °F 33% 30.38 in 10.0 mi SW 11.5 mph 20.7 mph N/A   Clear
12:34 AM 37.4 °F 28.9 °F 10.4 °F 33% 30.38 in 10.0 mi SW 13.8 mph 19.6 mph N/A   Clear
12:54 AM 37.4 °F 28.9 °F 10.4 °F 33% 30.37 in 10.0 mi SW 13.8 mph 18.4 mph N/A   Clear
1:14 AM 37.4 °F 28.5 °F 10.4 °F 33% 30.37 in 10.0 mi SW 15.0 mph 23.0 mph N/A   Clear
1:34 AM 37.4 °F 27.8 °F 10.4 °F 33% 30.36 in 10.0 mi SW 17.3 mph 23.0 mph N/A   Clear
1:54 AM 37.4 °F 28.2 °F 10.4 °F 33% 30.35 in 10.0 mi SW 16.1 mph 24.2 mph N/A   Clear
2:14 AM 35.6 °F 25.5 °F 8.6 °F 33% 30.35 in 10.0 mi SW 17.3 mph 23.0 mph N/A   Clear
2:34 AM 35.6 °F 26.2 °F 10.4 °F 35% 30.35 in 10.0 mi SW 15.0 mph - N/A   Clear
2:54 AM 35.6 °F 26.6 °F 10.4 °F 35% 30.34 in 10.0 mi SW 13.8 mph 19.6 mph N/A   Clear
3:14 AM 33.8 °F 23.5 °F 10.4 °F 38% 30.33 in 10.0 mi SW 16.1 mph 21.9 mph N/A   Clear
3:34 AM 33.8 °F 23.5 °F 10.4 °F 38% 30.32 in 10.0 mi SW 16.1 mph 24.2 mph N/A   Clear
3:54 AM 33.8 °F 23.5 °F 12.2 °F 41% 30.32 in 10.0 mi SW 16.1 mph 26.5 mph N/A   Clear
4:14 AM 33.8 °F 22.8 °F 12.2 °F 41% 30.32 in 10.0 mi SW 18.4 mph 26.5 mph N/A   Clear
4:34 AM 33.8 °F 22.2 °F 12.2 °F 41% 30.31 in 10.0 mi SW 20.7 mph 27.6 mph N/A   Clear
4:54 AM 33.8 °F 22.5 °F 12.2 °F 41% 30.31 in 10.0 mi SW 19.6 mph 28.8 mph N/A   Clear
5:14 AM 32.0 °F 20.5 °F 12.2 °F 44% 30.31 in 10.0 mi SW 18.4 mph 28.8 mph N/A   Clear
5:34 AM 32.0 °F 20.5 °F 14.0 °F 48% 30.31 in 10.0 mi SW 18.4 mph 24.2 mph N/A   Clear
5:54 AM 32.0 °F 20.8 °F 12.2 °F 44% 30.30 in 10.0 mi SW 17.3 mph 26.5 mph N/A   Clear
6:15 AM 32.0 °F 20.8 °F 12.2 °F 44% 30.30 in 10.0 mi SW 17.3 mph 24.2 mph N/A   Clear
6:35 AM 32.0 °F 20.8 °F 14.0 °F 48% 30.30 in 10.0 mi SW 17.3 mph 25.3 mph N/A   Clear
6:55 AM 32.0 °F 20.8 °F 14.0 °F 48% 30.31 in 10.0 mi SW 17.3 mph 21.9 mph N/A   Clear
7:15 AM 32.0 °F 21.2 °F 14.0 °F 48% 30.32 in 10.0 mi SW 16.1 mph 24.2 mph N/A   Clear
7:35 AM 32.0 °F 21.6 °F 14.0 °F 48% 30.32 in 10.0 mi SW 15.0 mph 24.2 mph N/A   Clear
7:55 AM 32.0 °F 21.2 °F 14.0 °F 48% 30.32 in 10.0 mi SW 16.1 mph - N/A   Clear
8:15 AM 32.0 °F 23.0 °F 14.0 °F 48% 30.33 in 10.0 mi SW 11.5 mph - N/A   Clear
8:34 AM 33.8 °F 25.3 °F 14.0 °F 44% 30.33 in 10.0 mi SSW 11.5 mph 18.4 mph N/A   Clear
8:55 AM 35.6 °F 27.1 °F 15.8 °F 44% 30.35 in 10.0 mi SSW 12.7 mph 18.4 mph N/A   Clear
9:15 AM 35.6 °F 27.5 °F 17.6 °F 48% 30.35 in 10.0 mi SSW 11.5 mph 16.1 mph N/A   Clear
9:35 AM 37.4 °F - 17.6 °F 45% 30.35 in 10.0 mi North - - N/A   Clear
9:55 AM 37.4 °F 31.4 °F 17.6 °F 45% 30.35 in 10.0 mi SSW 8.1 mph 18.4 mph N/A   Clear
10:15 AM 41.0 °F - 17.6 °F 39% 30.34 in 10.0 mi North - - N/A   Clear
10:35 AM 41.0 °F - 17.6 °F 39% 30.35 in 10.0 mi North - - N/A   Clear
10:55 AM 42.8 °F - 15.8 °F 34% 30.35 in 10.0 mi North - - N/A   Clear
11:15 AM 41.0 °F - 14.0 °F 33% 30.35 in 10.0 mi North - - N/A   Clear
11:35 AM 42.8 °F - 15.8 °F 34% 30.35 in 10.0 mi North - - N/A   Clear
11:55 AM 42.8 °F - 17.6 °F 36% 30.35 in 10.0 mi North - - N/A   Clear
12:15 PM 42.8 °F - 17.6 °F 36% 30.35 in 10.0 mi North - - N/A   Clear
12:35 PM 44.6 °F 39.2 °F 17.6 °F 34% 30.35 in 10.0 mi SSW 10.4 mph - N/A   Clear
12:55 PM 42.8 °F - 17.6 °F 36% 30.34 in 10.0 mi North - - N/A   Clear
1:35 PM 42.8 °F - 14.0 °F 31% 30.33 in 10.0 mi North - - N/A   Clear
1:55 PM 44.6 °F - 15.8 °F 31% 30.33 in 10.0 mi North - - N/A   Clear
2:15 PM 44.6 °F - 14.0 °F 29% 30.33 in 10.0 mi North - - N/A   Clear
2:35 PM 44.6 °F - 17.6 °F 34% 30.33 in 10.0 mi North - - N/A   Clear
3:15 PM 44.6 °F - 14.0 °F 29% 30.32 in 10.0 mi North - - N/A   Clear
3:34 PM 44.6 °F - 12.2 °F 27% 30.31 in 10.0 mi North - - N/A   Clear
3:55 PM 44.6 °F - 12.2 °F 27% 30.32 in 10.0 mi North - - N/A   Clear
4:15 PM 46.4 °F - 14.0 °F 27% 30.32 in 10.0 mi North - - N/A   Clear
4:35 PM 46.4 °F - 17.6 °F 32% 30.31 in 10.0 mi North - - N/A   Clear
4:55 PM 46.4 °F - 15.8 °F 29% 30.31 in 10.0 mi North - - N/A   Clear
5:15 PM 46.4 °F - 12.2 °F 25% 30.31 in 10.0 mi North - - N/A   Clear
5:35 PM 46.4 °F - 12.2 °F 25% 30.31 in 10.0 mi North - - N/A   Clear
5:55 PM 46.4 °F - 14.0 °F 27% 30.31 in 10.0 mi North - - N/A   Clear
6:15 PM 44.6 °F - 10.4 °F 25% 30.31 in 10.0 mi North - - N/A   Clear
6:35 PM 44.6 °F - 10.4 °F 25% 30.31 in 10.0 mi North - - N/A   Clear
6:55 PM 44.6 °F - 8.6 °F 23% 30.30 in 10.0 mi North - - N/A   Clear
7:15 PM 42.8 °F - 8.6 °F 25% 30.31 in 10.0 mi North - - N/A   Clear
7:35 PM 41.0 °F - 6.8 °F 24% 30.31 in 10.0 mi North - - N/A   Clear
7:55 PM 41.0 °F - 6.8 °F 24% 30.31 in 10.0 mi North - - N/A   Clear
8:15 PM 39.2 °F - 8.6 °F 28% 30.31 in 10.0 mi North - - N/A   Clear
8:35 PM 37.4 °F - 8.6 °F 30% 30.32 in 10.0 mi North - - N/A   Clear
8:55 PM 37.4 °F - 8.6 °F 30% 30.32 in 10.0 mi North - - N/A   Clear
9:15 PM 37.4 °F - 8.6 °F 30% 30.32 in 10.0 mi North - - N/A   Clear
9:35 PM 37.4 °F - 10.4 °F 33% 30.33 in 10.0 mi North - - N/A   Clear
9:55 PM 37.4 °F - 8.6 °F 30% 30.34 in 10.0 mi North - - N/A   Clear
10:15 PM 37.4 °F 30.3 °F 8.6 °F 30% 30.35 in 10.0 mi WSW 10.4 mph - N/A   Clear
10:35 PM 35.6 °F - 8.6 °F 33% 30.35 in 10.0 mi North - - N/A   Clear
10:55 PM 35.6 °F 30.7 °F 8.6 °F 33% 30.34 in 10.0 mi SSW 5.8 mph - N/A   Clear
11:15 PM 35.6 °F 31.7 °F 8.6 °F 33% 30.34 in 10.0 mi SSW 4.6 mph - N/A   Clear
11:35 PM 37.4 °F 33.8 °F 8.6 °F 30% 30.34 in 10.0 mi SSW 4.6 mph - N/A   Clear
11:55 PM 35.6 °F - 8.6 °F 33% 30.33 in 10.0 mi North - - N/A   Clear